This demonstration page uses our WeatherBlox Daily Observations layout. Learn more.

Left ArrowRight Arrow

Hourly Observations for July 15, 2021

Temp ( °F °C ) Dew Point ( °F °C ) Humidity (%) Winds ( mph kmh ) Pressure ( in mb ) Visibility ( mi km ) Precip ( " mm )
12:46 am 00:46 Cloudy with Strong Thunderstorms 68 20 66 19 94 94 NNE 14 22 29.96 1014 5 8 0.17 4.32
12:56 am 00:56 Cloudy with Heavy Rain 68 20 67 19.4 96 96 NE 9 15 29.98 1015 5 8 0.27 6.86
1:56 am 01:56 Mostly Cloudy 68 20 66 18.9 93 93 ENE 7 11 29.98 1015 10 16 0.06 1.52
2:56 am 02:56 Partly Cloudy 67 19.4 65 18.3 93 93 NE 8 13 29.96 1015 7 11 0.00 0.00
3:08 am 03:08 Partly Cloudy with Mist and Fog 66 19 64 18 94 94 NNE 8 13 29.95 1014 6 10 0.00 0.00
3:20 am 03:20 Mostly Cloudy 66 19 66 19 100 100 NE 8 13 29.95 1014 7 11 0.00 0.00
3:56 am 03:56 Cloudy with Mist and Fog 67 19.4 66 18.9 97 97 NE 8 13 29.96 1015 6 10 0.00 0.00
4:56 am 04:56 Cloudy with Mist and Fog 67 19.4 66 18.9 97 97 NE 7 11 29.95 1014 5 8 0.00 0.00
5:05 am 05:05 Cloudy with Mist and Fog 66 19 66 19 100 100 NE 8 13 29.93 1014 5 8 0.00 0.00
5:56 am 05:56 Cloudy with Mist and Fog 67 19.4 66 18.9 97 97 NE 12 19 29.95 1014 4 6 0.00 0.00
6:26 am 06:26 Cloudy with Mist and Fog 66 19 66 19 100 100 ENE 10 17 29.93 1014 3 4 0.00 0.00
6:44 am 06:44 Cloudy with Mist and Fog 66 19 66 19 100 100 NE 10 17 29.94 1014 3 4 0.00 0.00
6:56 am 06:56 Cloudy with Mist and Fog 67 19.4 66 18.9 97 97 NE 12 19 29.96 1015 3 4 0.00 0.00
7:43 am 07:43 Cloudy with Mist and Fog 66 19 66 19 100 100 ENE 13 20 29.95 1014 2 3 0.00 0.00
7:56 am 07:56 Cloudy with Mist and Fog 67 19.4 67 19.4 100 100 ENE 9 15 29.97 1015 2 2 0.00 0.00
8:56 am 08:56 Cloudy with Mist and Fog 67 19.4 67 19.4 100 100 ENE 10 17 29.98 1015 2 2 0.00 0.00
9:56 am 09:56 Cloudy with Mist and Fog 68 20 67 19.4 96 96 NE 9 15 29.99 1016 1 2 0.00 0.00
10:35 am 10:35 Cloudy with Mist and Fog 68 20 66 19 94 94 NE 9 15 29.97 1015 2 3 0.00 0.00
10:52 am 10:52 Cloudy with Mist and Fog 68 20 68 20 100 100 ENE 9 15 29.97 1015 3 5 0.00 0.00
10:56 am 10:56 Cloudy with Mist and Fog 68 20 68 20 100 100 ENE 8 13 29.99 1016 4 6 0.00 0.00
11:04 am 11:04 Cloudy with Mist and Fog 70 21 68 20 94 94 ENE 7 11 29.96 1015 4 6 0.00 0.00
11:14 am 11:14 Cloudy with Mist and Fog 70 21 66 19 88 88 ENE 10 17 29.95 1014 3 5 0.00 0.00
11:44 am 11:44 Cloudy 72 22 68 20 88 88 NE 9 15 29.94 1014 10 16 0.00 0.00
11:56 am 11:56 Cloudy 71 21.7 68 20 90 90 NNE 10 17 30.00 1016 7 11 0.00 0.00
12:41 pm 12:41 Cloudy 73 23 68 20 83 83 NE 9 15 29.94 1014 9 14 0.00 0.00
12:56 pm 12:56 Cloudy 74 23.3 68 20 82 82 ENE 9 15 29.99 1016 10 16 0.00 0.00
1:34 pm 13:34 Cloudy 73 23 68 20 83 83 ENE 9 15 29.94 1014 10 16 0.00 0.00
1:56 pm 13:56 Cloudy 74 23.3 69 20.6 85 85 E 6 9 29.98 1015 10 16 0.00 0.00
2:12 pm 14:12 Cloudy 75 24 68 20 78 78 ENE 6 9 29.93 1013 10 16 0.00 0.00
2:56 pm 14:56 Cloudy 76 24.4 68 20 77 77 ENE 9 15 29.97 1015 10 16 0.00 0.00
3:56 pm 15:56 Hazy 78 25.6 68 20 71 71 ENE 7 11 29.96 1014 4 6 0.00 0.00
4:56 pm 16:56 Mostly Sunny 78 25.6 70 21.1 76 76 E 10 17 29.94 1014 10 16 0.00 0.00
5:56 pm 17:56 Partly Cloudy 78 25.6 69 20.6 74 74 E 12 19 29.94 1014 10 16 0.00 0.00
6:05 pm 18:05 Mostly Cloudy 77 25 70 21 79 79 ENE 13 20 29.88 1012 10 16 0.00 0.00
6:15 pm 18:15 Mostly Cloudy 75 24 70 21 83 83 ENE 9 15 29.89 1012 10 16 0.00 0.00
6:41 pm 18:41 Mostly Cloudy 75 24 70 21 83 83 E 14 22 29.88 1012 10 16 0.00 0.00
6:56 pm 18:56 Partly Cloudy 76 24.4 69 20.6 79 79 E 14 22 29.93 1014 10 16 0.00 0.00
7:56 pm 19:56 Mostly Sunny 74 23.3 69 20.6 85 85 E 10 17 29.94 1014 10 16 0.00 0.00
8:56 pm 20:56 Sunny 71 21.7 68 20 90 90 E 7 11 29.95 1014 10 16 0.00 0.00
9:56 pm 21:56 Mostly Clear 68 20 67 19.4 96 96 ENE 5 7 29.96 1015 10 16 0.00 0.00
10:56 pm 22:56 Clear with Mist and Fog 67 19.4 66 18.9 97 97 ENE 6 9 29.98 1015 6 10 0.00 0.00
11:43 pm 23:43 Mostly Cloudy with Mist and Fog 66 19 66 19 100 100 NE 6 9 29.95 1014 6 10 0.00 0.00
11:56 pm 23:56 Cloudy with Mist and Fog 68 20 67 19.4 96 96 ENE 5 7 29.98 1015 6 10 0.00 0.00

Powered by AerisWeather